Back to catalog

OCEANSAT 2

AliveSciencePO
NORAD 35931·PAYLOAD·🇮🇳 India

Launched Sep 23, 2009 from Satish Dhawan Space Centre

Loading…

Next Passes (next 24 hours)

TLE

FreshSource: Space-Track

Epoch: Sep 14, 2026, 15:04 UTC

1 35931U 09051A   26257.62822400 -.00000152  00000-0 -78301-4 0  9995
2 35931  98.2419 235.5836 0015500 345.9051  14.1682 13.99667040891843

Track OCEANSAT 2 in real time with AllMySat

Download on the App Store